Flag for Austria Weather past 2 weeks in Bruck an der Leitha, Lower Austria, Austria

Now
68 °F

Rain showers. Overcast.


Feels Like: 68 °F
Forecast: 62 / 85 °F
Wind: N/A

Location: Wien / Schwechat-Flughafen

Current Time: Jul 25, 2014 at 11:19:15 AM

Latest Report: Jul 25, 2014 at 10:00 AM


Visibility: 11 mi

Pressure: 29.94 "Hg

Humidity: 75%

Dew point: 59 °F

Location of Bruck an der LeithaLocation

Historic Weather in Bruck an der Leitha — Graph

°F

Bruck an der Leitha temperature yesterday

Maximum temperature yesterday: 78 °F (at 5:00 PM)
Minimum temperature yesterday: 61 °F (at 4:00 AM)
Average temperature yesterday: 69 °F

Past Weeks' High & Low Weather Summary

 TemperatureHumidityPressure
High89 °F (Jul 20, 4:00 PM)98% (Jul 14, 5:00 AM)30.12 "Hg (Jul 14, 5:00 AM)
Low56 °F (Jul 11, 8:00 AM)29% (Jul 17, 4:00 PM)29.69 "Hg (Jul 21, 4:00 PM)
Average71 °F68%29.91 "Hg
* Reported Jul 10 10:00 AM — Jul 25 10:00 AM, Bruck an der Leitha, Weather by CustomWeather, © 2014

Note: Actual official high and low records may vary slightly from our data, if they occured in-between our weather recording intervals... More about our weather records

Advertising

Bruck an der Leitha weather history for previous 24 hours

 ConditionsComfort  
Time TempWeatherWind HumidityBarometerVisibility
10:00 AM
Jul 25
68 °FRain showers. Overcast.N/A75%29.94 "Hg11 mi
9:00 AM67 °FOvercast.N/A78%29.93 "Hg17 mi
8:00 AM65 °FOvercast.N/A82%29.94 "Hg12 mi
7:00 AM63 °FOvercast.N/A92%29.92 "Hg7 mi
6:00 AM62 °FOvercast.N/A91%29.91 "Hg8 mi
5:00 AM61 °FOvercast.N/A93%29.90 "Hg7 mi
4:00 AM61 °FPassing clouds.N/A97%29.90 "Hg7 mi
3:00 AM62 °FPassing clouds.N/A92%29.90 "Hg9 mi
2:00 AM63 °FPassing clouds.No wind88%29.90 "Hg16 mi
1:00 AM64 °FPassing clouds.N/A88%29.89 "Hg14 mi
12:00 AM65 °FPassing clouds.N/A80%29.89 "Hg19 mi
11:00 PM
Jul 24
69 °FPassing clouds.N/A66%29.88 "Hg22 mi
10:00 PM69 °FPassing clouds.N/A67%29.87 "Hg28 mi
9:00 PM71 °FPassing clouds.N/A67%29.85 "Hg28 mi
8:00 PM74 °FScattered clouds.N/A60%29.83 "Hg28 mi
7:00 PM76 °FPartly sunny.N/A58%29.83 "Hg19 mi
6:00 PM77 °FPartly sunny.N/A51%29.82 "Hg22 mi
5:00 PM78 °FScattered clouds.5 mph44%29.82 "Hg17 mi
4:00 PM76 °FPartly sunny.5 mph49%29.83 "Hg22 mi
3:00 PM77 °FPartly sunny.5 mph50%29.83 "Hg18 mi
2:00 PM76 °FScattered clouds.5 mph50%29.84 "Hg11 mi
1:00 PM74 °FScattered clouds.6 mph55%29.85 "Hg22 mi
12:00 PM73 °FScattered clouds.6 mph60%29.85 "Hg18 mi
11:00 AM70 °FScattered clouds.6 mph65%29.86 "Hg16 mi
Weather by CustomWeather, © 2014

See weather overviewHow to use our weather pages